WBANNO,USDM_WEEK,LONGITUDE,LATITUDE,SMVWC_5_CM_MEAN,SMANOM_5_CM_MEAN,SMPERC_5_CM_30COUNTS,SMPERC_5_CM_70COUNTS,SMVWC_10_CM_MEAN,SMANOM_10_CM_MEAN,SMPERC_10_CM_30COUNTS,SMPERC_10_CM_70COUNTS,SMVWC_20_CM_MEAN,SMANOM_20_CM_MEAN,SMPERC_20_CM_30COUNTS,SMPERC_20_CM_70COUNTS,SMVWC_50_CM_MEAN,SMANOM_50_CM_MEAN,SMPERC_50_CM_30COUNTS,SMPERC_50_CM_70COUNTS,SMVWC_100_CM_MEAN,SMANOM_100_CM_MEAN,SMPERC_100_CM_30COUNTS,SMPERC_100_CM_70COUNTS,SMVWC_TOP_CM_MEAN,SMANOM_TOP_CM_MEAN,SMPERC_TOP_CM_30COUNTS,SMPERC_TOP_CM_70COUNTS,SMVWC_COLUMN_CM_MEAN,SMANOM_COLUMN_CM_MEAN,SMPERC_COLUMN_CM_30COUNTS,SMPERC_COLUMN_CM_70COUNTS
63895,20240227,-87.71,34.45,,,,,,,,,,,,,,,,,,,,,,,,,,,,
63895,20240228,-87.71,34.45,,,,,,,,,,,,,,,,,,,,,,,,,,,,
63895,20240229,-87.71,34.45,,,,,,,,,,,,,,,,,,,,,,,,,,,,
63895,20240301,-87.71,34.45,,,,,,,,,,,,,,,,,,,,,,,,,,,,
63895,20240302,-87.71,34.45,,,,,,,,,,,,,,,,,,,,,,,,,,,,
63895,20240303,-87.71,34.45,0.236,,,,0.185,,,,0.192,,,,0.133,,,,,,,,0.211,,,,,,,
63895,20240304,-87.71,34.45,0.239,,,,0.187,,,,0.194,,,,0.134,,,,,,,,0.213,,,,,,,
63895,20240305,-87.71,34.45,0.243,,,,0.189,,,,0.195,,,,0.135,,,,,,,,0.216,,,,,,,
63895,20240306,-87.71,34.45,0.256,,,,0.199,,,,0.201,,,,0.137,,,,,,,,0.227,,,,,,,
63895,20240307,-87.71,34.45,0.271,,,,0.21,,,,0.212,,,,0.146,,,,,,,,0.24,,,,,,,
63895,20240308,-87.71,34.45,0.279,,,,0.217,,,,0.218,,,,0.152,,,,,,,,0.247,,,,,,,
63895,20240309,-87.71,34.45,0.28,,,,0.216,,,,0.216,,,,0.149,,,,,,,,0.247,,,,,,,
63895,20240310,-87.71,34.45,0.282,,,,0.217,,,,0.218,,,,0.15,,,,,,,,0.249,,,,,,,
63895,20240311,-87.71,34.45,0.284,,,,0.218,,,,0.219,,,,0.15,,,,,,,,0.25,,,,,,,
63895,20240312,-87.71,34.45,0.284,,,,0.218,,,,0.219,,,,0.151,,,,,,,,0.251,,,,,,,
63895,20240313,-87.71,34.45,0.274,,,,0.21,,,,0.215,,,,0.149,,,,,,,,0.242,,,,,,,
63895,20240314,-87.71,34.45,0.262,,,,0.201,,,,0.207,,,,0.141,,,,,,,,0.231,,,,,,,
63895,20240315,-87.71,34.45,0.253,,,,0.196,,,,0.204,,,,0.138,,,,,,,,0.224,,,,,,,
63895,20240316,-87.71,34.45,0.258,,,,0.199,,,,0.21,,,,0.14,,,,,,,,0.228,,,,,,,
63895,20240317,-87.71,34.45,0.259,,,,0.2,,,,0.21,,,,0.145,,,,,,,,0.229,,,,,,,
63895,20240318,-87.71,34.45,0.262,,,,0.202,,,,0.212,,,,0.146,,,,,,,,0.231,,,,,,,
63895,20240319,-87.71,34.45,0.264,,,,0.203,,,,0.212,,,,0.147,,,,,,,,0.233,,,,,,,
63895,20240320,-87.71,34.45,0.267,,,,0.205,,,,0.213,,,,0.147,,,,,,,,0.235,,,,,,,
63895,20240321,-87.71,34.45,0.268,,,,0.206,,,,0.214,,,,0.148,,,,,,,,0.236,,,,,,,
63895,20240322,-87.71,34.45,0.267,,,,0.206,,,,0.213,,,,0.147,,,,,,,,0.236,,,,,,,
63895,20240323,-87.71,34.45,0.255,,,,0.2,,,,0.208,,,,0.145,,,,,,,,0.228,,,,,,,
63895,20240324,-87.71,34.45,0.255,,,,0.199,,,,0.208,,,,0.141,,,,,,,,0.227,,,,,,,
63895,20240325,-87.71,34.45,0.251,,,,0.197,,,,0.207,,,,0.14,,,,,,,,0.224,,,,,,,
63895,20240326,-87.71,34.45,0.248,,,,0.197,,,,0.206,,,,0.14,,,,,,,,0.222,,,,,,,
63895,20240327,-87.71,34.45,0.26,,,,0.207,,,,0.214,,,,0.147,,,,,,,,0.233,,,,,,,
63895,20240328,-87.71,34.45,0.269,,,,0.212,,,,0.217,,,,0.152,,,,,,,,0.241,,,,,,,
63895,20240329,-87.71,34.45,0.279,,,,0.216,,,,0.219,,,,0.154,,,,,,,,0.248,,,,,,,
63895,20240330,-87.71,34.45,0.278,,,,0.214,,,,0.215,,,,0.151,,,,,,,,0.246,,,,,,,
63895,20240331,-87.71,34.45,0.265,,,,0.207,,,,0.211,,,,0.146,,,,,,,,0.236,,,,,,,
63895,20240401,-87.71,34.45,0.25,,,,0.201,,,,0.208,,,,0.145,,,,,,,,0.226,,,,,,,
63895,20240402,-87.71,34.45,0.236,,,,0.194,,,,0.205,,,,0.143,,,,,,,,0.215,,,,,,,
63895,20240403,-87.71,34.45,0.209,,,,0.176,,,,0.195,,,,0.136,,,,,,,,0.193,,,,,,,
63895,20240404,-87.71,34.45,0.186,,,,0.161,,,,0.189,,,,0.131,,,,,,,,0.173,,,,,,,
63895,20240405,-87.71,34.45,0.165,,,,0.146,,,,0.184,,,,0.129,,,,,,,,0.155,,,,,,,
63895,20240406,-87.71,34.45,0.146,,,,0.132,,,,0.177,,,,0.128,,,,,,,,0.139,,,,,,,
63895,20240407,-87.71,34.45,0.133,,,,0.119,,,,0.169,,,,0.126,,,,,,,,0.126,,,,,,,
63895,20240408,-87.71,34.45,0.125,,,,0.107,,,,0.159,,,,0.125,,,,,,,,0.116,,,,,,,
63895,20240409,-87.71,34.45,0.117,,,,0.097,,,,0.148,,,,0.124,,,,,,,,0.107,,,,,,,
63895,20240410,-87.71,34.45,0.143,,,,0.107,,,,0.149,,,,0.127,,,,,,,,0.119,,,,,,,
63895,20240411,-87.71,34.45,0.173,,,,0.131,,,,0.17,,,,0.135,,,,,,,,0.146,,,,,,,
63895,20240412,-87.71,34.45,0.204,,,,0.156,,,,0.185,,,,,,,,,,,,0.174,,,,,,,
63895,20240413,-87.71,34.45,0.227,,,,0.175,,,,0.196,,,,,,,,,,,,0.196,,,,,,,
63895,20240414,-87.71,34.45,0.246,,,,0.192,,,,0.207,,,,,,,,,,,,0.214,,,,,,,
63895,20240415,-87.71,34.45,0.26,,,,0.207,,,,0.219,,,,,,,,,,,,0.229,,,,,,,
63895,20240416,-87.71,34.45,0.269,,,,0.22,,,,0.23,,,,,,,,,,,,0.24,,,,,,,
63895,20240417,-87.71,34.45,0.242,,,,0.205,,,,0.222,,,,0.156,,,,,,,,0.223,,,,,,,
63895,20240418,-87.71,34.45,0.212,,,,0.183,,,,0.2,,,,0.147,,,,,,,,0.196,,,,,,,
63895,20240419,-87.71,34.45,0.182,,,,0.162,,,,0.185,,,,0.138,,,,,,,,0.172,,,,,,,
63895,20240420,-87.71,34.45,0.185,,,,0.165,,,,0.189,,,,0.141,,,,,,,,0.174,,,,,,,
63895,20240421,-87.71,34.45,0.188,,,,0.168,,,,0.191,,,,0.142,,,,,,,,0.177,,,,,,,
63895,20240422,-87.71,34.45,0.195,,,,0.173,,,,0.194,,,,0.142,,,,,,,,0.183,,,,,,,
63895,20240423,-87.71,34.45,0.204,,,,0.178,,,,0.196,,,,0.143,,,,,,,,0.19,,,,,,,
63895,20240424,-87.71,34.45,0.213,,,,0.185,,,,0.2,,,,0.143,,,,,,,,0.199,,,,,,,
63895,20240425,-87.71,34.45,0.219,,,,0.192,,,,0.202,,,,0.143,,,,,,,,0.205,,,,,,,
63895,20240426,-87.71,34.45,0.221,,,,0.197,,,,0.204,,,,0.143,,,,,,,,0.209,,,,,,,
63895,20240427,-87.71,34.45,0.199,,,,0.185,,,,0.193,,,,0.135,,,,,,,,0.192,,,,,,,
63895,20240428,-87.71,34.45,0.18,,,,0.175,,,,0.183,,,,0.132,,,,,,,,0.177,,,,,,,
63895,20240429,-87.71,34.45,0.161,,,,0.163,,,,0.172,,,,0.13,,,,,,,,0.162,,,,,,,
63895,20240430,-87.71,34.45,0.16,,,,0.159,,,,0.164,,,,0.147,,,,,,,,0.155,,,,,,,
63895,20240501,-87.71,34.45,0.171,,,,0.168,,,,0.172,,,,0.168,,,,,,,,0.165,,,,,,,
